Weather History for Marathon, FL

Change the Weather History Date:

Wednesday, April 16, 2014

  Actual Average Record
Temperature  
Mean Temperature 80 °F 77 °F  
Max Temperature 83 °F 83 °F 90 °F (2013)
Min Temperature 76 °F 72 °F 61 °F (2008)
Degree Days  
Heating Degree Days 0 0  
Month to date heating degree days 0 0  
Since 1 July heating degree days 35 81  
Cooling Degree Days 15 12  
Month to date cooling degree days 223 186  
Year to date cooling degree days 1049 851  
Growing Degree Days 28 (Base 50)    
Moisture  
Dew Point 72 °F    
Average Humidity 77    
Maximum Humidity 88    
Minimum Humidity 65    
Precipitation  
Precipitation 0.00 in 0.09 in 0.07 in (2002)
Month to date precipitation 0.13 1.14  
Year to date precipitation 5.39 7.35  
Snow  
Snow 0.00 in - - ()
Month to date snowfall 0.0  
Since 1 July snowfall 0.0  
Snow Depth 0.00 in    
Sea Level Pressure  
Sea Level Pressure 29.99 in    
Wind  
Wind Speed 10 mph (NNE)    
Max Wind Speed 15 mph    
Max Gust Speed 20 mph    
Visibility 10 miles    
Events      
T = Trace of Precipitation, MM = Missing Value Source: NWS Daily Summary

Daily Weather History Graph

Daily Weather History Graph

Search for Another Location

Airport:

Trip Planner

Search our weather history database for the weather conditions in past years. The results will help you decide how hot, cold, wet, or windy it might be!

Date:

Astronomy

Apr. 16, 2014 Rise Set
Actual Time 7:01 AM EDT 7:46 PM EDT
Civil Twilight 6:37 AM EDT 8:10 PM EDT
Nautical Twilight 6:10 AM EDT 8:37 PM EDT
Astronomical Twilight 5:42 AM EDT 9:05 PM EDT
Moon 9:20 PM EDT (4/16) 7:54 AM EDT (4/16)
Length of Visible Light 13h 32m
Length of Day
12h 45m
Full, 98% of the Moon is Illuminated
Apr 16
Full
Apr 22
Last Quarter
Apr 29
New
May 6
First Quarter
May 14
Full

Hourly Weather History & Observations

Time (EDT) Temp. Heat Index Dew Point Humidity Pressure Visibility Wind Dir Wind Speed Gust Speed Precip Events Conditions
12:53 AM 79.0 °F - 73.0 °F 82% 29.95 in 10.0 mi NW 3.5 mph - N/A   Clear
1:31 AM 79.0 °F - 73.0 °F 82% 29.95 in 10.0 mi Calm Calm - N/A   Mostly Cloudy
1:53 AM 79.0 °F - 73.0 °F 82% 29.96 in 10.0 mi West 3.5 mph - N/A   Overcast
2:01 AM 79.0 °F - 73.0 °F 82% 29.96 in 10.0 mi West 4.6 mph - N/A   Overcast
2:21 AM 79.0 °F - 73.0 °F 82% 29.94 in 10.0 mi Variable 3.5 mph - N/A   Overcast
2:29 AM 80.1 °F 84.2 °F 73.0 °F 79% 29.94 in 10.0 mi West 5.8 mph - N/A   Mostly Cloudy
2:53 AM 79.0 °F - 71.1 °F 77% 29.94 in 10.0 mi West 6.9 mph - N/A   Mostly Cloudy
3:53 AM 78.1 °F - 72.0 °F 81% 29.93 in 10.0 mi WNW 5.8 mph - N/A   Partly Cloudy
4:53 AM 77.0 °F - 73.0 °F 88% 29.93 in 10.0 mi WNW 4.6 mph - N/A   Partly Cloudy
5:44 AM 77.0 °F - 73.0 °F 88% 29.94 in 10.0 mi NW 10.4 mph - N/A   Mostly Cloudy
5:53 AM 77.0 °F - 73.0 °F 88% 29.95 in 10.0 mi NNW 9.2 mph - N/A   Mostly Cloudy
6:15 AM 77.0 °F - 72.0 °F 84% 29.96 in 10.0 mi NNW 10.4 mph - N/A   Overcast
6:53 AM 75.9 °F - 72.0 °F 87% 29.96 in 10.0 mi NNW 9.2 mph - N/A   Mostly Cloudy
7:45 AM - - - N/A% 29.98 in 10.0 mi NNW 8.1 mph - N/A   Mostly Cloudy
7:53 AM - - - N/A% 29.99 in 10.0 mi NNW 10.4 mph - N/A   Mostly Cloudy
8:02 AM - - - N/A% 29.98 in 10.0 mi North 11.5 mph - N/A   Overcast
8:53 AM - - - N/A% 30.01 in 10.0 mi North 9.2 mph - N/A   Overcast
9:53 AM 77.0 °F - 71.1 °F 82% 30.01 in 10.0 mi NNE 10.4 mph - N/A   Mostly Cloudy
10:36 AM 77.0 °F - 71.1 °F 82% 30.03 in 10.0 mi NE 11.5 mph - N/A   Overcast
10:53 AM 77.0 °F - 70.0 °F 79% 30.04 in 10.0 mi NE 10.4 mph - N/A   Overcast
11:12 AM 78.1 °F - 70.0 °F 76% 30.04 in 10.0 mi NNE 11.5 mph - N/A   Mostly Cloudy
11:22 AM 80.1 °F 83.6 °F 71.1 °F 74% 30.03 in 10.0 mi NNE 9.2 mph - N/A   Scattered Clouds
11:53 AM 80.1 °F 83.6 °F 71.1 °F 74% 30.04 in 10.0 mi North 9.2 mph - N/A   Partly Cloudy
12:53 PM 80.1 °F 83.2 °F 70.0 °F 71% 30.03 in 10.0 mi North 10.4 mph - N/A   Partly Cloudy
1:53 PM 82.0 °F 86.3 °F 71.1 °F 69% 30.03 in 10.0 mi North 8.1 mph - N/A   Scattered Clouds
2:53 PM 82.0 °F 85.9 °F 70.0 °F 67% 30.01 in 10.0 mi NE 10.4 mph - N/A   Mostly Cloudy
3:53 PM 82.0 °F 85.9 °F 70.0 °F 67% 29.99 in 10.0 mi ENE 9.2 mph - N/A   Overcast
4:53 PM 82.0 °F 86.7 °F 72.0 °F 71% 29.98 in 10.0 mi East 12.7 mph - N/A   Mostly Cloudy
5:53 PM 82.0 °F 87.4 °F 73.0 °F 74% 29.98 in 10.0 mi East 12.7 mph - N/A   Mostly Cloudy
6:53 PM 81.0 °F 85.2 °F 72.0 °F 74% 29.99 in 10.0 mi East 11.5 mph - N/A   Mostly Cloudy
7:30 PM 79.0 °F - 72.0 °F 79% 29.99 in 10.0 mi ENE 12.7 mph - N/A   Scattered Clouds
7:53 PM 79.0 °F - 72.0 °F 79% 30.00 in 10.0 mi East 11.5 mph - N/A   Partly Cloudy
8:09 PM 79.0 °F - 72.0 °F 79% 30.00 in 10.0 mi ENE 8.1 mph - N/A   Mostly Cloudy
8:41 PM 79.0 °F - 72.0 °F 79% 30.01 in 10.0 mi ENE 12.7 mph 18.4 mph N/A   Mostly Cloudy
8:53 PM 79.0 °F - 71.1 °F 77% 30.01 in 10.0 mi ENE 15.0 mph 19.6 mph N/A   Mostly Cloudy
9:53 PM 79.0 °F - 71.1 °F 77% 30.05 in 10.0 mi ENE 9.2 mph - N/A   Partly Cloudy
10:53 PM 79.0 °F - 70.0 °F 74% 30.06 in 10.0 mi ENE 10.4 mph - N/A   Overcast
11:53 PM 79.0 °F - 70.0 °F 74% 30.05 in 10.0 mi ENE 12.7 mph - N/A   Clear